DW9996 Weather Reports


time (UTC)temp
F
wind
direction
speed
knots
gust
knots
rain 1hr
in
rain 24hr
in
rain mn
in
humidity
%
barometer
mb
20260506021555 45 360 3.5 7.8 0.00 0.00 0.00 33 1020.0
20260506020048 46 360 5.2 12.2 0.00 0.00 0.00 32 1019.8
20260506014546 46 5 7.8 13.0 0.00 0.00 0.00 32 1019.8
20260506013045 47 334 5.2 10.4 0.00 0.00 0.00 31 1019.8
20260506011544 47 5 7.0 13.9 0.00 0.00 0.00 31 1019.7
20260506010054 48 12 7.0 14.8 0.00 0.00 0.00 29 1019.5
20260506004549 48 355 7.8 13.0 0.00 0.00 0.00 30 1019.6
20260506003043 48 15 6.1 15.6 0.00 0.00 0.00 30 1019.6
20260506001546 49 355 5.2 17.4 0.00 0.00 0.00 32 1019.5
20260506000042 48 325 7.8 14.8 0.00 0.00 0.00 31 1019.4
20260505234601 48 355 8.7 15.6 0.00 0.00 0.00 31 1019.5
20260505233042 49 336 8.7 13.0 0.00 0.00 0.00 30 1019.4
20260505231539 49 331 6.1 13.9 0.00 0.00 0.00 31 1019.3
20260505230039 48 32 7.8 16.5 0.00 0.00 0.00 32 1019.3
20260505224537 49 319 10.4 16.5 0.00 0.00 0.00 31 1019.3
20260505223040 48 340 8.7 17.4 0.00 0.00 0.00 32 1019.4
20260505221536 47 343 8.7 15.6 0.00 0.00 0.00 34 1019.4
20260505220040 47 340 12.2 16.5 0.00 0.00 0.00 33 1019.4
20260505214559 48 338 7.8 17.4 0.00 0.00 0.00 32 1019.4
20260505213036 47 11 7.8 16.5 0.00 0.00 0.00 34 1019.5
20260505211535 47 336 7.0 15.6 0.00 0.00 0.00 34 1019.6
20260505210034 47 5 9.6 18.2 0.00 0.00 0.00 35 1019.8
20260505204537 46 343 8.7 16.5 0.00 0.00 0.00 37 1019.8
20260505203038 46 336 7.8 16.5 0.00 0.00 0.00 37 1019.8
20260505201536 48 328 6.1 13.0 0.00 0.00 0.00 36 1019.8
20260505200029 46 5 7.0 15.6 0.00 0.00 0.00 37 1019.8
20260505194533 46 345 8.7 13.9 0.00 0.00 0.00 39 1019.7
20260505193028 46 315 7.0 17.4 0.00 0.00 0.00 39 1019.6
20260505191528 47 304 7.0 16.5 0.00 0.00 0.00 39 1019.7
20260505190026 45 355 7.8 13.0 0.00 0.00 0.00 40 1019.7
20260505184527 45 328 10.4 18.2 0.00 0.00 0.00 40 1019.6
20260505183023 45 329 7.8 16.5 0.00 0.00 0.00 42 1019.8
20260505181522 45 13 8.7 14.8 0.00 0.00 0.00 43 1019.8
20260505180041 44 17 6.1 15.6 0.00 0.00 0.00 44 1019.9
20260505174544 44 346 7.8 14.8 0.00 0.00 0.00 43 1019.9
20260505173023 44 12 11.3 16.5 0.00 0.00 0.00 43 1020.0
20260505171522 43 19 8.7 15.6 0.00 0.00 0.00 46 1020.0
20260505170016 43 31 7.8 13.0 0.00 0.00 0.00 47 1020.2
20260505164516 42 355 8.7 15.6 0.00 0.00 0.00 50 1020.3
20260505163019 41 360 5.2 9.6 0.00 0.00 0.00 51 1020.3
20260505161509 41 321 5.2 8.7 0.00 0.00 0.00 52 1020.3
20260505153004 39 348 6.1 13.9 0.00 0.00 0.00 53 1020.3
20260505151503 39 10 5.2 11.3 0.00 0.00 0.00 55 1020.3
20260505124546 31 337 1.7 3.5 0.00 0.00 0.00 70 1019.4
20260505123044 31 360 3.5 7.0 0.00 0.00 0.00 69 1019.2
20260505121540 32 62 3.5 7.8 0.00 0.00 0.00 67 1019.0
20260505120041 33 346 3.5 7.0 0.00 0.00 0.00 66 1018.6
20260505114537 33 334 3.5 9.6 0.00 0.00 0.00 67 1018.4
20260505113033 33 340 2.6 6.1 0.00 0.00 0.00 68 1018.4
20260505111530 32 319 3.5 5.2 0.00 0.00 0.00 69 1018.4
20260505101532 32 311 1.7 3.5 0.00 0.00 0.00 67 1018.2
20260505100023 34 311 0.9 4.3 0.00 0.00 0.00 66 1018.1
20260505094520 34 298 0.9 1.7 0.00 0.00 0.00 66 1017.9
20260505093031 33 304 1.7 3.5 0.00 0.00 0.00 67 1017.9
20260505091523 31 296 0.9 2.6 0.00 0.00 0.00 68 1017.9
20260505090015 31 296 0.0 0.9 0.00 0.00 0.00 67 1017.8
20260505084513 32 296 0.0 1.7 0.00 0.00 0.00 65 1017.7
20260505083013 32 293 0.9 4.3 0.00 0.00 0.00 65 1017.7
20260505081508 33 313 0.9 2.6 0.00 0.00 0.00 64 1017.5
20260505080007 33 313 0.9 2.6 0.00 0.00 0.00 64 1017.3
20260505074503 33 313 0.0 3.5 0.00 0.00 0.00 64 1017.4
20260505073001 33 299 0.0 1.7 0.00 0.00 0.00 63 1017.2
20260505071605 34 298 0.9 2.6 0.00 0.00 0.00 60 1017.2
20260505070058 36 318 0.0 1.7 0.00 0.00 0.00 60 1017.1
20260505064554 35 323 0.9 3.5 0.00 0.00 0.00 61 1017.3
20260505063114 34 298 0.0 3.5 0.00 0.00 0.00 61 1017.0
20260505061617 34 298 0.9 2.6 0.00 0.00 0.00 62 1017.0
20260505060055 34 298 0.0 2.6 0.00 0.00 0.00 61 1016.8
20260505054546 34 340 0.0 1.7 0.00 0.00 0.00 61 1016.9
20260505053044 34 340 0.0 2.6 0.00 0.00 0.00 60 1016.6
20260505051601 34 340 0.0 0.9 0.00 0.00 0.00 56 1016.4
20260505041528 40 340 1.7 4.3 0.00 0.00 0.00 50 1016.0
20260505040025 41 28 2.6 7.0 0.00 0.00 0.00 49 1015.6
20260505034518 42 28 2.6 7.0 0.00 0.00 0.00 47 1015.4
20260505033015 43 43 2.6 10.4 0.00 0.00 0.00 46 1015.4
20260505031515 44 360 6.1 10.4 0.00 0.00 0.00 45 1015.3
20260505030008 44 32 2.6 9.6 0.00 0.00 0.00 44 1015.0
20260505024509 45 5 6.1 12.2 0.00 0.00 0.00 43 1014.8
20260505023003 46 55 7.0 13.0 0.00 0.00 0.00 41 1014.6